sat.trackr.live / text

‹ back to catalog

FGRST (GLAST)

NORAD 33053 · 2008-029A

PAYLOAD INACTIVE UNKNOWN

§ Identity

Operator
Country
US
Launch date
2008-06-11
Launch site
AFETR
Launch vehicle
Mass (kg)
RCS (m²)
4.93

Purposes: science

External: N2YO · Heavens-Above · Gunter

§ Orbital elements

Epoch: 2026-05-24T22:00:59.018400Z

Period
94.50 min
Inclination
25.5840°
Eccentricity
0.0008619
Mean motion
15.23796704 rev/d
Perigee alt
488.5 km
Apogee alt
500.3 km
Semi-major
6,872.5 km
B*
1.1338e-4
RAAN
6.0379°
Arg perigee
53.4302°
Mean anomaly
306.7028°
Rev number
99,228

§ Raw data

FGRST (GLAST)1 33053U 08029A   26144.91734975  .00003147  00000+0  11338-3 0  99982 33053  25.5840   6.0379 0008619  53.4302 306.7028 15.23796704992286

JSON: /api/v1/satellites/33053 · /tle

For live sub-satellite position, see the globe view (requires WebGL).

§ Visibility from observer

Set your observer location to see the next 7 days of passes ≥ 10°. The values pass through the URL so the page stays shareable.

No JS? Fill the form by hand. The geolocation button needs JavaScript.